Flag for U.S.A. Weather past 2 weeks in Cleveland, Tennessee, U.S.A.

Now
67 °F

Clear.


Feels Like: 67 °F
Forecast: 66 / 82 °F
Wind: No wind

Location: Lovell Field

Current Time: May 27, 2015 at 2:09:53 AM

Latest Report: May 27, 2015 at 12:53 AM


Visibility: 10 mi

Pressure: 30.17 "Hg

Humidity: 93%

Dew point: 65 °F

Location of ClevelandLocation

Historic Weather in Cleveland — Graph

°F

Cleveland temperature yesterday

Maximum temperature yesterday: 80 °F (at 12:53 PM)
Minimum temperature yesterday: 67 °F (at 12:53 AM)
Average temperature yesterday: 72 °F

Past Weeks' High & Low Weather Summary

 TemperatureHumidityPressure
High87 °F (May 20, 3:53 PM)97% (May 17, 4:53 AM)30.38 "Hg (May 17, 4:53 AM)
Low50 °F (May 23, 5:53 AM)24% (May 13, 5:53 PM)29.86 "Hg (May 20, 10:53 PM)
Average71 °F68%30.16 "Hg
* Reported May 12 12:53 AM — May 27 12:53 AM, Cleveland, Weather by CustomWeather, © 2015

Note: Actual official high and low records may vary slightly from our data, if they occured in-between our weather recording intervals... More about our weather records

Advertising

Cleveland weather history for previous 24 hours

 ConditionsComfort  
Time TempWeatherWind HumidityBarometerVisibility
12:53 AM
Wed, May 27
67 °FClear.No wind93%30.17 "Hg10 mi
11:53 PM
Tue, May 26
68 °FPartly cloudy.No wind90%30.18 "Hg8 mi
10:53 PM68 °FPassing clouds.6 mph93%30.17 "Hg9 mi
9:53 PM69 °FPassing clouds.6 mph90%30.14 "Hg8 mi
8:53 PM70 °FMostly cloudy.6 mph90%30.12 "Hg9 mi
7:53 PM71 °FMostly cloudy.8 mph90%30.11 "Hg9 mi
6:53 PM71 °FMostly cloudy.7 mph93%30.10 "Hg10 mi
5:53 PM71 °FMore clouds than sun.7 mph90%30.10 "Hg7 mi
4:53 PM74 °FCloudy.8 mph88%30.07 "Hg10 mi
4:00 PM76 °FThunderstorms. Cloudy.7 mph80%30.11 "Hg10 mi
2:53 PM75 °FLight rain. Broken clouds.6 mph88%30.09 "Hg10 mi
1:53 PM80 °FLight rain. Partly sunny.13 mph69%30.11 "Hg6 mi
12:53 PM80 °FPartly sunny.7 mph69%30.15 "Hg10 mi
11:53 AM79 °FBroken clouds.10 mph74%30.16 "Hg10 mi
10:53 AM76 °FBroken clouds.8 mph85%30.17 "Hg6 mi
9:53 AM73 °FFog.8 mph90%30.18 "Hg4 mi
8:53 AM71 °FFog.5 mph93%30.18 "Hg2 mi
7:53 AM70 °FDrizzle. Fog.3 mph97%30.17 "Hg1 mi
6:53 AM69 °FDrizzle. Fog.3 mph93%30.16 "Hg2 mi
5:53 AM69 °FDrizzle. Fog.No wind93%30.15 "Hg5 mi
4:53 AM68 °FOvercast.No wind93%30.14 "Hg10 mi
3:53 AM68 °FOvercast.No wind93%30.14 "Hg10 mi
2:53 AM67 °FOvercast.No wind97%30.15 "Hg10 mi
Weather by CustomWeather, © 2015

See weather overviewHow to use our weather pages